This is the latest recevied weather packets stored in our database for station/object SV1RVP-13. If no packets are shown the sender has not sent any weather packets the latest 10 day(s).
| Time | Temp. | Humidity | Pressure | Rain* | Wind** | Luminosity | Snow |
|---|---|---|---|---|---|---|---|
| 1778248723 | 22.78° C | 56% | 1014.4 hPa | 0 mm | - | - | - |
| 1778248125 | 22.78° C | 57% | 1014.7 hPa | 0 mm | - | - | - |
| 1778247516 | 22.78° C | 56% | 1014.8 hPa | 0 mm | - | - | - |
| 1778246919 | 22.78° C | 56% | 1014.9 hPa | 0 mm | - | - | - |
| 1778246308 | 23.33° C | 53% | 1015.1 hPa | 0 mm | - | - | - |
| 1778245711 | 22.78° C | 54% | 1015.3 hPa | 0 mm | - | - | - |
| 1778245109 | 22.78° C | 53% | 1015.4 hPa | 0 mm | - | - | - |
| 1778244531 | 22.78° C | 52% | 1015.5 hPa | 0 mm | - | - | - |
| 1778243916 | 22.78° C | 51% | 1015.7 hPa | 0 mm | - | - | - |
| 1778243321 | 22.78° C | 49% | 1016.1 hPa | 0 mm | - | - | - |
| 1778242710 | 22.22° C | 49% | 1016.4 hPa | 0 mm | - | - | - |
| 1778242119 | 22.22° C | 49% | 1016.4 hPa | 0 mm | - | - | - |
| 1778241518 | 22.22° C | 51% | 1016.3 hPa | 0 mm | - | - | - |
| 1778240910 | 22.22° C | 51% | 1016.4 hPa | 0 mm | - | - | - |
| 1778240311 | 22.22° C | 51% | 1016.5 hPa | 0 mm | - | - | - |
| 1778239715 | 22.22° C | 50% | 1016.2 hPa | 0 mm | - | - | - |
| 1778239109 | 22.22° C | 50% | 1016.1 hPa | 0 mm | - | - | - |
| 1778238511 | 22.22° C | 50% | 1016.6 hPa | 0 mm | - | - | - |
| 1778237925 | 22.22° C | 50% | 1017.1 hPa | 0 mm | - | - | - |
| 1778237314 | 22.22° C | 52% | 1016.9 hPa | 0 mm | - | - | - |
| 1778236714 | 22.22° C | 51% | 1017.2 hPa | 0 mm | - | - | - |
| 1778236135 | 22.22° C | 51% | 1017.5 hPa | 0 mm | - | - | - |
| 1778235508 | 22.22° C | 52% | 1017.4 hPa | 0 mm | - | - | - |
| 1778234909 | 21.67° C | 52% | 1017.4 hPa | 0 mm | - | - | - |
| 1778234323 | 21.67° C | 52% | 1017.7 hPa | 0 mm | - | - | - |
* Rain since midnight (hover to see other rain measurements)
** Current wind speed in m/s (hover to see current wind gust speed)